Regional Weather Roundup
Issued by NWS Goodland, KS

Home | Current Version | Previous Version | Graphics & Text | Print | Product List | Glossary On
Versions: 1 2 3 4 5 6 7 8 9 10 11 12 13 14 15 16 17 18 19 20 21 22 23 24 25 26 27 28 29 30 31 32 33 34 35 36 37 38 39 40 41 42 43 44 45 46 47 48 49 50
000
ASUS43 KGLD 160508
RWRGLD

GOODLAND FORECAST AREA HOURLY WEATHER ROUNDUP
NATIONAL WEATHER SERVICE GOODLAND KS
1100 PM MDT MON SEP 15 2014

...OFFICIAL OBSERVATIONS...

CITY           SKY/WX    TMP DP  RH WIND       PRES   REMARKS
GOODLAND KS    CLEAR     53  50  89 S10       30.29S
HILL CITY KS   CLEAR     48  43  82 CALM      30.28R
IMPERIAL NEB   CLEAR     51  43  74 S8        30.24F
MCCOOK NEB     CLEAR     51  43  74 SE7       30.27S
AKRON CO       CLEAR     54  50  86 S16       30.24F
BURLINGTON CO  CLOUDY    58  51  78 S9        30.29S
LIMON CO       PTCLDY    51  50  96 S10       30.32F
$$

...UNOFFICIAL OBSERVATIONS...

CITY           SKY/WX    TMP DP  RH WIND       PRES   REMARKS
COLBY KS       CLEAR     52  48  87 SE7       30.29S
GOVE KS          N/A     51  32  48 MISG        N/A
NORTON KS      CLEAR     48  39  71 E3        30.26S
SHARON SPRINGS   N/A     57  53  87 SE7         N/A
WAKEENEY KS      N/A     52  42  69 MISG        N/A
TRENTON NEB      N/A     50  32  50 SE8         N/A
YUMA CO          N/A     54  50  87 S8          N/A
$$


USA.gov is the U.S. government's official web portal to all federal, state and local government web resources and services.